Time,TemperatureF,DewpointF,PressureIn,WindDirection,WindDirectionDegrees,WindSpeedMPH,WindSpeedGustMPH,Humidity,HourlyPrecipIn,Conditions,Clouds,dailyrainin,SoftwareType,DateUTC
2013-01-21 00:00:00,19.0,-5.0,-100.00,NNW,334,17.0,28.0,33,-99.99,,,-99.99,,2013-01-21 07:00:00,
2013-01-21 00:42:00,19.0,-5.0,-100.00,NNW,334,17.0,28.0,33,-99.99,,,-99.99,,2013-01-21 07:42:00,
2013-01-21 00:53:00,19.0,-5.0,-100.00,NNW,334,17.0,28.0,33,-99.99,,,-99.99,,2013-01-21 07:53:00,
2013-01-21 01:00:00,20.0,-2.0,-100.00,NNW,336,21.0,31.0,36,-99.99,,,-99.99,,2013-01-21 08:00:00,
2013-01-21 01:43:00,20.0,-2.0,-100.00,NNW,336,21.0,31.0,36,-99.99,,,-99.99,,2013-01-21 08:43:00,
2013-01-21 01:53:00,20.0,-2.0,-100.00,NNW,336,21.0,31.0,36,-99.99,,,-99.99,,2013-01-21 08:53:00,
2013-01-21 02:00:00,18.0,-1.0,-100.00,North,359,6.0,20.0,44,-99.99,,,-99.99,,2013-01-21 09:00:00,
2013-01-21 02:43:00,18.0,-1.0,-100.00,North,359,6.0,20.0,44,-99.99,,,-99.99,,2013-01-21 09:43:00,
2013-01-21 02:53:00,18.0,-1.0,-100.00,North,359,6.0,20.0,44,-99.99,,,-99.99,,2013-01-21 09:53:00,
2013-01-21 03:00:00,18.0,-2.0,-100.00,NNW,336,8.0,17.0,40,-99.99,,,-99.99,,2013-01-21 10:00:00,
2013-01-21 03:43:00,18.0,-2.0,-100.00,NNW,336,8.0,17.0,40,-99.99,,,-99.99,,2013-01-21 10:43:00,
2013-01-21 03:52:00,18.0,-2.0,-100.00,NNW,336,8.0,17.0,40,-99.99,,,-99.99,,2013-01-21 10:52:00,
2013-01-21 04:00:00,20.0,-6.0,-100.00,NNW,334,11.0,17.0,32,-99.99,,,-99.99,,2013-01-21 11:00:00,
2013-01-21 04:43:00,20.0,-6.0,-100.00,NNW,334,11.0,17.0,32,-99.99,,,-99.99,,2013-01-21 11:43:00,
2013-01-21 04:53:00,20.0,-6.0,-100.00,NNW,334,11.0,17.0,32,-99.99,,,-99.99,,2013-01-21 11:53:00,
2013-01-21 05:00:00,20.0,-7.0,-100.00,NNW,334,12.0,19.0,29,-99.99,,,-99.99,,2013-01-21 12:00:00,
2013-01-21 05:43:00,20.0,-7.0,-100.00,NNW,334,12.0,19.0,29,-99.99,,,-99.99,,2013-01-21 12:43:00,
2013-01-21 05:53:00,20.0,-7.0,-100.00,NNW,334,12.0,19.0,29,-99.99,,,-99.99,,2013-01-21 12:53:00,
2013-01-21 06:00:00,21.0,-5.0,-100.00,NNW,337,15.0,22.0,31,-99.99,,,-99.99,,2013-01-21 13:00:00,
2013-01-21 06:43:00,21.0,-5.0,-100.00,NNW,337,15.0,22.0,31,-99.99,,,-99.99,,2013-01-21 13:43:00,
2013-01-21 06:53:00,21.0,-5.0,-100.00,NNW,337,15.0,22.0,31,-99.99,,,-99.99,,2013-01-21 13:53:00,
2013-01-21 07:00:00,19.0,-4.0,-100.00,NNW,328,16.0,23.0,34,-99.99,,,-99.99,,2013-01-21 14:00:00,
2013-01-21 07:43:00,19.0,-4.0,-100.00,NNW,328,16.0,23.0,34,-99.99,,,-99.99,,2013-01-21 14:43:00,
2013-01-21 07:53:00,19.0,-4.0,-100.00,NNW,328,16.0,23.0,34,-99.99,,,-99.99,,2013-01-21 14:53:00,
2013-01-21 08:00:00,20.0,-2.0,-100.00,NNW,335,15.0,24.0,37,-99.99,,,-99.99,,2013-01-21 15:00:00,
2013-01-21 08:43:00,20.0,-2.0,-100.00,NNW,335,15.0,24.0,37,-99.99,,,-99.99,,2013-01-21 15:43:00,
2013-01-21 08:53:00,20.0,-2.0,-100.00,NNW,335,15.0,24.0,37,-99.99,,,-99.99,,2013-01-21 15:53:00,
2013-01-21 09:00:00,18.0,-2.0,-100.00,NW,323,10.0,18.0,40,-99.99,,,-99.99,,2013-01-21 16:00:00,
2013-01-21 09:43:00,18.0,-2.0,-100.00,NW,323,10.0,18.0,40,-99.99,,,-99.99,,2013-01-21 16:43:00,
2013-01-21 09:53:00,18.0,-2.0,-100.00,NW,323,10.0,18.0,40,-99.99,,,-99.99,,2013-01-21 16:53:00,
2013-01-21 10:00:00,21.0,0.0,-100.00,NW,323,5.0,18.0,38,-99.99,,,-99.99,,2013-01-21 17:00:00,
2013-01-21 10:43:00,21.0,0.0,-100.00,NW,323,5.0,18.0,38,-99.99,,,-99.99,,2013-01-21 17:43:00,
2013-01-21 10:53:00,21.0,0.0,-100.00,NW,323,5.0,18.0,38,-99.99,,,-99.99,,2013-01-21 17:53:00,
2013-01-21 11:00:00,22.0,0.0,-100.00,North,6,9.0,25.0,37,-99.99,,,-99.99,,2013-01-21 18:00:00,
2013-01-21 11:43:00,22.0,0.0,-100.00,North,6,9.0,25.0,37,-99.99,,,-99.99,,2013-01-21 18:43:00,
2013-01-21 11:53:00,22.0,0.0,-100.00,North,6,9.0,25.0,37,-99.99,,,-99.99,,2013-01-21 18:53:00,
2013-01-21 12:00:00,22.0,-4.0,-100.00,North,349,9.0,24.0,31,-99.99,,,-99.99,,2013-01-21 19:00:00,
2013-01-21 12:43:00,22.0,-4.0,-100.00,North,349,9.0,24.0,31,-99.99,,,-99.99,,2013-01-21 19:43:00,
2013-01-21 12:53:00,22.0,-4.0,-100.00,North,349,9.0,24.0,31,-99.99,,,-99.99,,2013-01-21 19:53:00,
2013-01-21 13:00:00,21.0,-1.0,-100.00,NW,321,10.0,21.0,36,-99.99,,,-99.99,,2013-01-21 20:00:00,
2013-01-21 13:43:00,21.0,-1.0,-100.00,NW,321,10.0,21.0,36,-99.99,,,-99.99,,2013-01-21 20:43:00,
2013-01-21 13:53:00,21.0,-1.0,-100.00,NW,321,10.0,21.0,36,-99.99,,,-99.99,,2013-01-21 20:53:00,
2013-01-21 14:00:00,22.0,-1.0,-100.00,NW,312,11.0,20.0,37,-99.99,,,-99.99,,2013-01-21 21:00:00,
2013-01-21 14:43:00,22.0,-1.0,-100.00,NW,312,11.0,20.0,37,-99.99,,,-99.99,,2013-01-21 21:43:00,
2013-01-21 14:53:00,22.0,-1.0,-100.00,NW,312,11.0,20.0,37,-99.99,,,-99.99,,2013-01-21 21:53:00,
2013-01-21 15:00:00,22.0,-4.0,-100.00,NW,310,7.0,18.0,32,-99.99,,,-99.99,,2013-01-21 22:00:00,
2013-01-21 15:43:00,22.0,-4.0,-100.00,NW,310,7.0,18.0,32,-99.99,,,-99.99,,2013-01-21 22:43:00,
2013-01-21 15:53:00,22.0,-4.0,-100.00,NW,310,7.0,18.0,32,-99.99,,,-99.99,,2013-01-21 22:53:00,
2013-01-21 16:00:00,25.0,-4.0,-100.00,West,276,3.0,10.0,28,-99.99,,,-99.99,,2013-01-21 23:00:00,
2013-01-21 16:43:00,25.0,-4.0,-100.00,West,276,3.0,10.0,28,-99.99,,,-99.99,,2013-01-21 23:43:00,
2013-01-21 16:53:00,25.0,-4.0,-100.00,West,276,3.0,10.0,28,-99.99,,,-99.99,,2013-01-21 23:53:00,
2013-01-21 17:00:00,23.0,-3.0,-100.00,NW,304,5.0,11.0,31,-99.99,,,-99.99,,2013-01-22 00:00:00,
2013-01-21 17:43:00,23.0,-3.0,-100.00,NW,304,5.0,11.0,31,-99.99,,,-99.99,,2013-01-22 00:43:00,
2013-01-21 17:53:00,23.0,-3.0,-100.00,NW,304,5.0,11.0,31,-99.99,,,-99.99,,2013-01-22 00:53:00,
2013-01-21 18:00:00,22.0,-3.0,-100.00,NNW,342,17.0,35.0,34,-99.99,,,-99.99,,2013-01-22 01:00:00,
2013-01-21 18:43:00,22.0,-3.0,-100.00,NNW,342,17.0,35.0,34,-99.99,,,-99.99,,2013-01-22 01:43:00,
2013-01-21 18:52:00,22.0,-3.0,-100.00,NNW,342,17.0,35.0,34,-99.99,,,-99.99,,2013-01-22 01:52:00,
2013-01-21 19:00:00,23.0,-4.0,-100.00,NNW,343,24.0,37.0,30,-99.99,,,-99.99,,2013-01-22 02:00:00,
2013-01-21 19:43:00,23.0,-4.0,-100.00,NNW,343,24.0,37.0,30,-99.99,,,-99.99,,2013-01-22 02:43:00,
2013-01-21 19:53:00,23.0,-4.0,-100.00,NNW,343,24.0,37.0,30,-99.99,,,-99.99,,2013-01-22 02:53:00,
2013-01-21 20:00:00,23.0,-10.0,-100.00,NNW,343,25.0,41.0,21,-99.99,,,-99.99,,2013-01-22 03:00:00,
2013-01-21 20:42:00,23.0,-10.0,-100.00,NNW,343,25.0,41.0,21,-99.99,,,-99.99,,2013-01-22 03:42:00,
2013-01-21 20:52:00,23.0,-10.0,-100.00,NNW,343,25.0,41.0,21,-99.99,,,-99.99,,2013-01-22 03:52:00,
2013-01-21 21:00:00,23.0,-17.0,-100.00,NNW,342,26.0,39.0,15,-99.99,,,-99.99,,2013-01-22 04:00:00,
2013-01-21 21:42:00,23.0,-17.0,-100.00,NNW,342,26.0,39.0,15,-99.99,,,-99.99,,2013-01-22 04:42:00,
2013-01-21 21:52:00,23.0,-17.0,-100.00,NNW,342,26.0,39.0,15,-99.99,,,-99.99,,2013-01-22 04:52:00,
2013-01-21 22:00:00,24.0,-14.0,-100.00,NNW,347,29.0,43.0,17,-99.99,,,-99.99,,2013-01-22 05:00:00,
2013-01-21 22:43:00,24.0,-14.0,-100.00,NNW,347,29.0,43.0,17,-99.99,,,-99.99,,2013-01-22 05:43:00,
2013-01-21 22:53:00,24.0,-14.0,-100.00,NNW,347,29.0,43.0,17,-99.99,,,-99.99,,2013-01-22 05:53:00,
2013-01-21 23:00:00,24.0,-13.0,-100.00,NNW,342,22.0,35.0,18,-99.99,,,-99.99,,2013-01-22 06:00:00,
2013-01-21 23:43:00,24.0,-13.0,-100.00,NNW,342,22.0,35.0,18,-99.99,,,-99.99,,2013-01-22 06:43:00,
2013-01-21 23:52:00,24.0,-13.0,-100.00,NNW,342,22.0,35.0,18,-99.99,,,-99.99,,2013-01-22 06:52:00,